Wind_Speed
15 14 13 13 13 14 15 16 17 19 20 21 22 22 23 23 23 22 22 22 23 23 24 24 23 22 21 21 21 20 20 20 19 19 16 14 14 14 14 14 11 11 11 9 8 7 7 4 5 8 8 8 7 7 7 9 14 15 9 6 8 7 9 10 7 7 8 9 7 6 7 3 4 5 4 4 3 1 1 2 2 5 7 9 11 11 9 11
16 15 14 14 14 14 15 16 17 18 20 20 21 21 21 22 23 22 22 21 21 20 21 20 20 20 20 20 20 20 20 19 19 19 15 14 15 14 15 15 13 12 12 10 9 8 6 4 8 10 8 6 6 6 7 11 14 12 5 6 9 8 11 11 8 8 7 8 6 6 7 4 2 3 3 3 3 2 2 3 4 6 8 9 11 12 11 11
17 16 15 15 14 14 15 16 17 18 19 20 19 19 20 21 22 22 21 19 18 17 18 18 17 18 18 19 20 19 19 19 19 17 15 16 15 14 15 16 14 13 13 11 10 10 7 8 10 9 6 4 4 5 8 12 12 9 6 6 9 10 12 13 11 8 7 8 7 5 5 3 1 3 2 2 0 2 1 5 6 8 9 8 10 13 12 12
18 17 16 16 15 15 15 16 17 18 18 18 18 18 19 20 21 21 18 16 15 15 15 14 14 15 16 17 18 18 18 17 17 15 15 17 14 14 16 17 16 15 14 12 13 12 10 12 11 7 6 5 5 7 8 11 10 7 7 7 11 12 11 14 13 10 9 8 6 4 5 3 1 1 2 5 3 3 2 6 7 9 9 7 8 14 14 13
20 18 17 17 16 16 15 16 17 17 18 17 17 18 19 19 20 19 15 13 13 13 12 11 11 12 13 15 16 17 15 13 15 15 16 18 15 15 17 18 18 16 14 13 14 13 12 14 11 7 7 6 8 9 9 11 10 7 9 11 12 10 11 16 15 12 10 8 6 6 6 3 1 2 4 6 5 5 4 6 8 10 10 8 8 13 15 14
21 19 18 18 17 17 16 16 16 17 17 17 17 18 19 18 18 16 13 12 12 12 11 10 10 10 11 13 14 15 15 12 13 17 18 18 15 15 19 20 19 17 14 14 15 14 14 15 10 7 7 8 10 10 11 11 11 9 11 12 12 12 14 17 15 12 11 9 9 8 6 3 2 4 6 7 6 5 3 5 8 9 11 12 12 14 15 14
21 20 19 18 18 17 16 16 15 16 17 17 18 18 18 17 15 14 12 12 12 13 13 12 12 11 11 12 13 13 17 16 14 19 20 17 14 16 21 21 20 18 15 15 15 15 16 13 10 9 9 10 12 11 13 12 10 9 11 12 14 16 17 17 14 13 11 11 10 8 8 6 3 5 6 6 4 2 2 4 7 9 11 14 16 15 14 14
22 20 19 19 19 18 16 15 15 15 17 17 18 18 17 15 14 13 12 12 13 14 13 13 13 13 13 13 13 13 18 18 15 19 20 17 15 16 22 23 21 19 17 16 15 17 17 12 11 11 9 11 13 13 14 12 9 9 11 13 16 17 16 15 14 14 13 12 9 8 8 6 3 5 6 5 4 4 4 6 7 9 11 13 15 14 14 13
22 21 20 19 19 18 17 15 14 15 17 17 17 17 16 14 13 12 12 12 13 13 13 13 13 13 13 13 13 14 17 18 16 18 19 17 15 17 22 23 21 19 17 17 18 20 17 12 13 12 11 14 15 15 15 11 9 11 12 14 16 16 16 14 15 15 15 12 9 8 9 8 4 5 6 5 6 7 8 9 9 9 10 12 12 13 13 12
23 21 20 20 19 19 17 15 14 15 17 17 17 17 15 14 12 11 11 10 11 12 12 11 12 12 14 15 14 15 18 19 17 18 19 17 15 19 23 22 20 18 18 18 19 21 17 14 15 15 14 15 16 17 15 9 10 13 14 15 15 15 15 14 15 15 13 12 11 10 10 7 7 7 6 8 9 9 10 12 12 10 9 10 10 11 11 10
23 22 21 20 19 19 17 14 14 15 17 16 16 16 15 13 11 10 9 8 9 11 10 8 9 11 14 15 15 16 20 21 18 19 21 17 14 20 23 21 20 20 18 19 20 22 19 16 16 15 13 14 16 18 15 10 10 13 14 15 15 14 14 13 13 12 12 14 13 11 12 10 10 9 9 10 11 10 11 12 13 13 11 10 9 9 9 10
23 22 21 20 19 18 16 14 14 15 16 16 16 16 14 12 10 8 7 6 8 10 8 5 7 11 13 15 18 20 22 22 20 20 21 17 15 20 23 22 24 22 17 18 20 22 20 17 17 14 12 14 15 17 16 13 11 12 13 14 15 14 13 12 11 10 11 13 13 10 11 12 10 10 11 11 12 12 11 11 13 14 14 13 12 10 10 11
23 23 22 20 19 18 16 14 14 15 16 15 15 15 13 11 9 7 6 5 7 8 6 3 6 10 12 14 19 22 24 23 21 22 23 18 15 20 25 26 26 21 18 18 19 22 19 17 18 15 15 17 16 16 16 15 13 12 11 12 14 14 12 11 10 9 9 9 12 8 8 11 9 10 12 12 12 12 11 11 12 13 14 13 13 12 12 12
22 23 22 20 19 18 16 14 14 15 15 14 14 14 12 11 8 6 5 5 5 6 4 3 6 11 15 17 20 23 25 23 22 24 24 19 15 20 28 27 23 19 19 19 20 22 18 17 17 15 17 19 19 18 17 17 14 12 12 12 14 13 11 11 10 9 7 6 9 7 6 10 9 10 12 13 13 13 11 11 11 12 13 13 13 13 13 12
21 23 23 20 19 18 16 14 13 15 14 13 14 13 12 10 7 6 4 5 4 4 3 3 6 12 16 18 22 24 25 24 24 25 25 22 17 19 27 26 21 19 20 19 20 21 17 17 16 13 16 18 19 19 17 16 13 12 13 14 14 11 11 12 11 10 7 5 4 4 6 9 9 10 10 11 13 13 11 11 11 11 12 13 13 13 13 12
21 23 23 20 18 18 17 15 14 14 14 13 13 12 11 10 8 6 5 6 5 4 4 3 6 12 12 14 22 24 25 25 25 26 25 24 21 22 27 26 20 19 20 19 20 20 17 17 16 14 17 17 17 18 16 14 13 14 13 13 14 11 11 11 11 10 9 6 3 1 5 7 9 11 10 9 11 13 12 11 11 10 12 12 12 13 13 12
20 22 23 21 18 17 17 16 14 14 13 13 12 12 11 10 8 6 6 7 7 5 4 5 7 12 12 14 21 23 25 25 25 26 25 25 24 24 27 26 21 19 20 19 19 20 17 16 16 15 16 16 16 17 17 16 15 15 14 13 14 13 12 11 10 11 10 7 5 2 4 6 9 11 10 10 11 12 12 11 11 10 11 12 12 13 12 11
20 21 23 21 18 17 17 17 15 13 12 12 12 11 10 10 9 7 7 9 9 6 5 6 9 11 10 15 21 22 25 26 24 26 26 26 26 26 27 26 21 20 20 18 19 21 17 15 15 14 15 17 18 18 17 15 15 16 15 14 14 13 13 11 9 11 11 8 5 4 4 6 9 11 11 11 11 13 12 11 12 11 11 12 13 12 11 10
20 21 22 21 18 17 17 17 17 14 12 12 12 11 10 10 9 8 9 10 10 9 6 7 11 11 7 12 21 24 25 25 24 26 27 28 29 29 28 26 22 21 20 18 20 21 17 15 15 16 18 19 19 19 17 13 13 16 16 15 15 15 14 11 9 11 11 8 6 6 6 7 10 11 12 11 12 14 13 12 13 13 12 12 12 12 11 11
22 21 22 21 18 17 17 17 18 15 11 11 12 11 10 10 8 9 11 12 11 11 10 8 11 10 6 11 20 24 25 25 25 26 28 29 30 29 27 25 22 21 20 17 18 21 19 19 19 19 19 18 19 18 15 10 11 15 17 16 15 15 14 12 11 14 13 8 8 8 7 8 11 12 13 12 12 14 14 14 13 13 12 12 12 12 13 12
23 22 22 21 19 17 16 17 18 16 12 10 11 10 10 10 8 9 12 13 12 13 13 12 12 11 9 13 19 23 26 26 25 27 30 31 30 28 26 26 24 22 22 17 16 20 22 21 21 20 17 16 17 16 14 10 10 14 16 15 14 14 12 13 15 16 14 10 8 9 9 10 12 13 14 14 13 14 14 14 14 14 14 13 12 13 14 14
25 23 21 21 19 17 16 17 18 17 13 11 10 9 10 11 10 10 12 13 14 15 14 15 14 13 12 14 19 24 26 26 27 29 32 32 30 26 25 26 24 22 22 18 15 18 21 21 21 19 17 17 18 17 15 12 12 14 16 15 14 13 11 13 16 17 15 12 9 10 10 11 13 15 16 16 16 16 16 17 17 16 15 15 14 13 13 14
25 23 21 20 19 18 16 16 18 18 14 12 10 9 9 11 11 11 11 12 13 15 15 15 14 14 15 14 19 24 25 26 28 31 33 33 29 23 23 26 24 21 21 21 18 18 20 21 19 19 20 20 19 19 17 13 14 15 15 15 14 13 13 14 17 19 18 14 11 11 11 12 14 17 18 18 18 19 18 19 19 18 17 17 17 15 13 14
25 22 20 19 19 18 16 16 17 18 16 13 10 8 8 10 11 10 11 10 12 14 14 14 14 16 16 14 17 23 23 24 27 31 34 33 29 24 23 25 22 20 21 22 20 18 17 18 19 21 23 22 19 21 20 15 15 15 15 15 12 13 15 13 15 18 17 15 14 13 13 13 15 17 19 20 19 19 20 20 20 21 21 21 20 18 16 16
23 21 19 19 18 18 17 15 16 17 16 14 11 8 7 9 10 11 10 8 10 14 14 14 16 17 16 13 15 21 21 21 25 30 32 31 29 26 22 23 22 20 22 22 21 18 15 17 20 21 23 22 20 20 20 17 16 15 17 17 14 13 14 13 15 16 15 15 16 16 13 11 14 16 18 20 21 21 21 21 21 22 23 23 22 21 19 18
22 20 18 18 18 17 16 15 16 17 16 15 11 8 6 7 9 10 9 7 8 12 14 16 16 16 16 13 16 21 18 19 23 27 31 31 29 26 21 22 22 18 21 22 20 17 14 16 21 21 22 22 19 19 18 17 15 13 14 17 17 14 12 14 16 16 14 14 15 17 14 9 11 16 18 21 23 23 22 22 23 23 23 24 24 23 21 20
21 19 17 17 18 17 16 15 15 16 15 14 12 8 6 5 7 8 7 6 8 11 14 18 16 15 18 16 18 22 17 21 26 27 32 32 30 27 22 23 21 17 21 22 17 16 16 18 22 23 21 19 19 18 16 17 15 8 9 15 17 13 12 13 15 14 11 9 11 15 15 12 11 12 16 21 23 24 25 24 24 24 23 24 25 25 23 21
21 19 17 16 18 17 15 14 15 16 15 14 12 9 6 4 5 5 4 5 6 10 14 20 18 17 20 18 20 19 12 20 25 25 30 31 28 26 20 21 21 19 25 24 16 16 18 20 23 22 19 18 17 15 15 17 12 4 7 11 11 10 10 10 12 10 7 9 11 13 14 13 13 12 13 17 21 24 27 26 26 26 25 24 25 26 24 21
22 19 17 15 17 18 16 14 14 15 15 15 13 10 6 3 3 3 4 5 5 8 13 18 18 20 23 20 23 18 10 16 20 23 31 30 29 27 19 20 20 18 25 22 12 15 20 21 21 20 18 17 16 14 15 17 11 6 9 11 10 11 9 8 9 8 7 11 13 13 13 13 12 11 12 15 20 23 25 26 26 27 27 26 25 26 26 24
22 20 16 14 15 17 17 14 14 15 14 14 13 11 6 3 3 5 6 5 4 8 14 17 18 22 23 22 24 19 13 17 18 23 30 27 28 27 20 21 20 16 22 18 9 15 23 21 22 22 16 14 16 16 15 16 12 10 11 12 11 10 8 7 7 7 8 11 12 11 13 13 12 10 11 15 19 19 20 22 24 25 27 27 27 27 27 27
22 20 16 14 14 16 16 15 14 14 13 13 13 11 6 4 6 8 7 6 5 8 15 18 18 22 24 24 25 20 17 19 19 26 30 25 26 26 20 22 21 16 19 17 12 17 23 21 22 24 17 13 16 17 17 16 13 11 12 13 10 8 7 7 7 8 8 7 7 9 11 13 13 13 11 11 13 14 15 18 21 22 24 26 29 29 28 28
21 20 16 14 14 15 16 15 15 14 12 12 12 9 7 8 10 11 8 7 7 8 13 18 20 23 24 24 24 21 20 21 21 26 29 26 26 26 22 22 23 20 20 20 17 18 20 19 21 23 19 16 17 17 18 16 13 12 12 13 10 7 7 7 7 8 9 6 5 6 8 12 16 17 17 14 13 14 15 15 18 20 21 24 28 31 30 28
20 19 15 14 13 15 16 16 15 14 12 12 11 9 9 11 11 12 12 7 5 7 11 15 20 22 23 24 23 21 21 21 23 26 27 25 23 24 22 21 23 21 20 22 21 20 18 16 19 21 19 19 18 16 18 16 15 15 14 15 12 7 6 7 7 7 10 7 5 6 7 11 16 15 16 17 16 17 18 16 18 20 22 24 26 30 31 29
19 18 15 14 13 14 16 16 15 15 13 12 11 9 11 14 11 11 13 9 5 5 9 14 19 20 23 23 22 23 22 20 24 26 26 25 23 25 25 22 24 20 16 20 22 21 18 14 19 21 19 21 20 16 16 15 16 15 14 14 13 10 9 6 5 7 8 5 6 7 8 10 11 9 10 13 13 16 19 19 20 23 25 26 26 29 32 31
17 17 15 13 14 15 15 16 16 15 14 13 12 12 14 16 12 9 11 10 6 5 7 15 19 20 23 21 19 24 23 19 24 26 26 27 24 25 26 23 26 22 15 18 19 18 15 13 20 23 19 20 21 18 16 14 14 15 12 13 12 11 10 6 5 6 8 6 6 8 9 10 11 11 13 13 11 14 17 18 21 24 27 29 29 30 33 33
16 16 15 14 14 14 15 16 16 16 16 15 14 16 18 17 11 6 8 9 7 5 7 14 18 20 24 22 19 25 23 18 25 27 25 27 25 24 25 22 26 25 18 17 16 16 15 10 17 24 21 20 22 21 20 16 12 13 15 15 13 10 8 7 7 5 7 9 6 8 11 12 12 11 10 10 9 10 13 16 19 21 26 32 32 32 34 35
14 15 15 14 14 15 15 16 16 16 17 16 17 18 18 17 12 8 6 8 8 6 7 13 19 21 22 22 22 26 24 19 24 27 24 25 24 24 24 21 23 26 22 17 13 14 16 11 15 23 23 23 23 21 23 20 11 11 14 16 16 13 9 9 7 5 7 8 4 7 11 11 8 6 5 6 7 7 9 13 16 18 21 28 33 34 34 34
13 15 15 15 14 15 15 16 17 17 17 18 20 20 18 17 16 13 10 9 7 7 7 10 16 21 21 21 23 26 25 22 25 26 23 24 23 22 24 22 22 26 24 19 15 14 17 13 16 21 22 22 23 19 20 22 18 14 12 13 16 13 10 11 8 5 6 7 4 6 9 10 10 7 3 4 6 7 8 10 14 17 17 21 28 35 35 33
12 14 15 15 14 14 15 16 17 18 19 20 21 20 20 19 17 16 14 12 9 7 8 7 10 17 20 19 21 25 27 24 24 26 23 22 22 19 23 23 21 24 25 22 19 15 16 15 14 20 22 21 22 21 18 19 21 20 13 13 16 12 8 10 8 8 6 6 6 4 5 8 9 7 4 4 5 6 7 7 10 14 16 16 21 30 35 33
11 12 14 15 15 15 16 16 18 20 22 22 20 18 20 20 16 16 16 14 11 8 8 6 5 12 17 17 17 21 27 26 23 25 24 21 18 15 20 24 21 21 24 25 22 17 16 17 13 16 20 21 20 21 21 17 19 22 18 15 17 14 10 9 8 9 8 7 6 3 6 7 3 3 5 5 5 6 7 6 6 11 14 16 17 23 30 32
11 11 13 15 15 15 17 18 20 23 23 21 19 18 21 21 17 16 17 16 15 11 9 8 6 8 12 16 16 18 24 26 23 23 22 21 19 16 18 23 23 23 24 25 24 20 18 18 15 15 17 19 19 21 22 19 18 21 20 19 18 16 13 10 9 9 8 8 6 5 8 8 4 5 8 6 5 7 7 7 5 7 11 14 15 17 22 27
11 10 12 15 15 15 18 18 20 24 22 19 19 20 22 22 19 17 16 15 15 13 12 11 10 8 9 12 14 16 22 25 23 22 21 20 20 17 16 19 22 23 23 23 24 23 19 17 17 16 14 15 17 19 22 22 22 22 20 19 18 17 16 14 9 7 8 8 8 8 9 9 8 8 7 6 7 8 9 9 6 6 8 11 14 16 17 21
12 12 13 14 15 16 17 17 20 25 22 20 22 21 21 21 19 18 16 13 12 12 12 12 11 10 10 9 11 15 19 22 22 22 20 18 19 18 16 17 18 20 21 20 21 24 23 19 19 17 12 14 16 18 22 24 25 24 21 20 19 17 18 16 10 6 7 9 8 8 9 8 7 6 8 11 9 7 9 9 7 6 7 9 12 15 17 19
12 14 14 14 15 17 18 15 16 21 21 20 22 21 19 20 20 18 16 15 13 11 12 11 10 10 11 11 11 13 16 17 18 20 18 16 18 20 19 18 17 18 19 17 18 24 24 22 21 17 11 12 13 14 20 24 25 24 21 21 22 18 16 15 11 8 11 13 11 9 10 8 4 7 13 15 9 7 10 8 6 7 8 9 11 14 16 18
12 12 13 15 16 18 20 17 15 15 16 19 19 17 16 16 19 21 19 18 18 16 14 11 11 12 13 13 12 13 17 15 13 18 18 15 17 20 20 20 20 19 19 18 19 21 21 21 24 22 14 12 12 14 17 20 22 23 21 21 24 22 20 18 14 11 13 13 13 13 14 11 8 9 12 10 7 7 10 10 10 9 9 11 13 15 17 18
12 11 12 14 17 21 22 22 22 16 13 15 16 16 14 12 15 20 20 19 19 20 17 13 13 13 13 14 12 12 18 16 11 15 17 15 16 18 18 19 21 22 22 22 20 19 20 21 25 26 21 17 16 16 18 19 20 23 24 25 27 25 23 21 17 15 13 12 14 18 19 18 15 11 10 9 9 10 11 13 14 13 13 14 15 17 20 21
11 13 14 15 16 19 20 22 24 20 16 15 14 15 14 12 13 16 17 19 19 19 19 16 15 12 10 13 13 11 16 17 14 14 15 14 15 15 15 16 18 21 22 22 20 19 20 22 23 26 25 22 18 15 16 19 21 22 23 25 26 25 24 22 20 18 15 14 15 15 16 18 20 18 14 13 13 13 13 15 16 18 18 17 18 19 21 24
12 14 16 17 16 17 19 22 25 24 21 19 16 15 13 10 11 13 15 19 20 20 18 14 15 15 12 13 15 12 14 17 16 15 14 15 15 14 12 13 14 15 17 20 23 22 20 19 20 22 23 24 23 21 19 18 18 20 21 21 23 25 25 25 23 19 18 18 17 13 12 16 20 20 18 16 16 17 18 18 20 22 22 22 22 22 23 25
12 14 16 18 19 18 20 23 26 25 23 22 20 19 15 11 11 14 16 17 17 20 18 13 15 20 17 15 16 13 13 16 16 15 16 16 15 14 13 11 11 12 13 16 21 24 22 18 18 19 18 21 25 25 22 18 16 18 19 19 21 23 23 23 21 18 18 20 18 15 17 21 23 24 23 22 21 22 23 22 21 21 23 24 24 24 24 26
11 14 16 17 19 20 18 20 22 21 21 22 20 19 19 16 14 15 16 15 14 18 21 18 19 22 19 18 18 15 15 16 15 15 18 17 15 15 14 11 9 10 12 12 15 20 19 16 17 17 15 17 22 23 20 17 15 16 17 17 18 18 19 19 17 17 19 19 18 17 19 22 22 20 20 23 24 25 25 23 20 18 21 24 25 26 26 26
10 13 16 16 18 19 17 18 20 18 16 18 19 19 20 19 17 16 16 17 17 18 21 21 21 21 20 20 21 19 18 18 16 15 17 17 16 16 16 14 12 11 11 10 12 16 17 13 14 17 15 14 16 17 16 15 14 15 16 17 18 18 17 16 16 17 19 16 15 16 17 18 15 13 17 23 25 24 23 22 21 20 21 23 25 26 26 26
9 11 14 15 16 18 18 17 18 15 13 18 20 20 19 18 18 17 14 16 19 18 19 20 20 19 19 22 24 23 21 20 19 18 17 16 17 17 16 16 16 13 11 11 10 13 16 14 12 15 15 13 14 14 14 14 14 15 17 18 17 17 16 15 15 16 16 14 13 14 15 14 14 15 19 21 20 18 19 21 22 22 22 23 24 24 24 24
Wind_Direction
327 324 320 309 297 290 288 289 289 289 290 291 293 294 293 291 289 287 284 280 276 271 268 265 262 258 254 250 246 244 241 239 237 238 238 233 233 227 221 219 209 204 208 214 225 235 239 224 180 172 150 129 109 91 88 110 119 109 105 124 112 98 106 114 121 113 112 127 130 120 122 106 35 20 23 44 10 342 149 201 198 179 164 153 147 143 148 133
326 324 323 316 305 297 293 291 290 291 293 294 296 297 296 294 292 289 285 281 278 273 269 265 262 258 253 248 244 241 238 236 234 233 232 228 227 222 213 209 201 199 203 209 215 216 222 204 180 168 147 131 113 99 107 120 117 110 112 110 99 100 112 114 118 114 117 135 150 146 133 123 61 343 357 36 327 311 260 220 191 182 169 154 149 144 148 142
326 324 324 320 313 304 299 296 294 294 296 298 299 299 297 295 293 290 287 284 279 273 270 267 263 257 251 246 242 239 236 234 232 228 224 223 223 216 206 200 194 193 198 203 204 203 202 187 176 164 148 148 139 120 128 127 112 109 109 96 104 112 120 124 125 124 121 139 169 169 140 143 197 312 21 101 345 23 298 238 192 180 168 154 152 146 149 149
325 324 323 322 317 310 305 302 299 299 300 300 301 300 297 296 294 291 289 285 279 273 271 268 262 255 248 243 239 236 232 232 231 221 217 219 216 208 198 191 188 189 196 198 198 198 189 179 176 168 162 179 165 137 141 137 118 107 94 102 115 109 121 131 129 133 131 140 162 152 141 168 244 291 113 112 97 87 260 245 204 185 169 160 160 150 153 156
326 323 323 322 319 314 309 306 304 303 302 303 304 301 299 299 295 292 290 284 278 274 272 269 262 251 244 238 234 230 222 226 228 210 210 216 210 201 190 183 186 190 195 194 194 192 184 179 176 171 166 179 170 149 156 139 116 114 108 115 116 105 127 135 135 139 133 128 128 128 140 172 247 226 159 134 143 163 214 226 201 191 171 161 167 157 157 160
326 323 322 321 320 316 312 309 306 304 304 306 307 304 304 302 295 292 289 282 278 276 274 269 262 250 242 233 227 220 203 206 212 198 203 210 204 197 185 182 187 191 193 194 192 187 184 180 175 181 174 176 170 160 168 140 112 121 120 117 113 113 132 134 133 129 121 123 128 135 133 132 175 198 174 156 168 180 196 192 187 187 168 156 160 161 160 159
325 323 322 321 320 317 312 310 307 305 305 308 308 307 307 303 296 292 287 283 280 278 276 269 262 251 242 231 221 210 199 200 198 191 198 200 195 190 183 183 188 191 193 193 192 188 186 183 182 189 178 174 171 164 166 143 117 126 127 123 118 122 130 128 123 117 121 128 128 134 130 122 141 183 179 170 166 150 127 150 168 168 155 152 154 158 158 153
325 323 321 320 319 317 313 309 306 304 306 308 309 309 308 304 296 292 288 287 284 281 278 269 261 248 238 228 216 202 197 199 193 190 192 190 189 186 182 185 189 193 193 190 192 190 186 186 187 181 176 179 175 165 156 140 127 130 132 129 123 124 126 121 115 113 119 115 108 115 108 93 113 176 170 158 136 103 105 128 146 149 144 150 151 152 153 146
324 323 321 319 318 317 312 308 304 303 307 309 310 310 310 305 297 294 293 292 289 284 280 271 259 243 230 221 210 198 193 192 189 187 185 184 188 186 182 186 194 193 186 187 189 186 182 187 184 171 178 182 173 164 153 145 141 136 135 130 125 125 121 116 114 115 117 104 89 81 60 53 89 138 140 132 124 103 103 117 128 139 143 148 148 149 149 145
322 322 320 319 318 316 311 306 303 304 308 310 311 311 310 306 298 297 299 297 291 287 287 273 252 234 221 211 200 194 191 185 182 181 177 180 185 182 181 186 191 180 175 184 188 186 184 187 183 174 178 175 169 166 157 157 150 136 133 130 128 128 120 119 123 125 120 100 82 71 63 71 97 110 126 128 127 111 104 114 121 129 138 143 148 154 152 151
321 321 319 318 316 315 310 303 301 305 309 310 311 311 310 307 299 302 305 297 290 292 294 272 241 220 211 202 190 189 189 182 178 175 173 176 173 172 178 181 174 166 172 185 189 190 186 183 178 173 177 172 169 167 161 161 149 134 131 131 132 130 124 124 130 129 117 101 86 73 73 88 103 114 129 128 127 120 109 113 118 124 133 136 141 149 149 149
320 320 318 316 315 313 308 302 299 305 310 310 310 310 309 306 300 305 302 287 291 298 297 269 225 205 199 192 186 185 184 180 177 174 173 174 163 163 170 168 163 164 174 185 191 191 186 180 169 162 173 169 165 169 167 157 140 130 131 135 135 132 129 133 141 133 119 105 89 79 83 90 106 117 119 120 124 123 116 118 120 123 129 129 130 131 133 134
319 319 317 315 314 311 306 300 297 305 310 309 309 308 307 304 300 304 289 275 294 304 299 248 204 190 181 184 188 184 179 178 177 173 175 177 164 162 164 162 164 168 172 180 192 191 184 178 170 165 169 165 165 173 169 154 144 141 142 148 145 143 148 153 160 146 137 115 84 76 88 92 104 113 116 124 126 123 121 125 129 132 134 132 133 132 131 129
318 319 317 313 312 309 303 297 294 304 310 308 307 306 305 301 297 298 274 259 285 303 298 212 184 179 175 180 186 182 177 176 175 173 177 179 171 165 163 162 167 172 174 177 188 191 184 177 175 173 171 170 171 172 165 157 157 158 160 169 163 161 164 168 173 154 156 149 90 65 78 97 109 111 118 128 126 126 127 132 138 141 143 141 141 140 138 135
317 318 317 312 310 306 300 294 292 302 309 308 306 303 302 297 290 286 257 244 264 285 271 194 171 176 178 183 183 181 178 175 174 175 179 179 175 170 165 166 172 174 176 178 184 190 186 176 171 169 173 173 171 168 165 163 167 174 176 177 177 176 169 178 189 169 166 175 116 60 81 107 121 113 118 130 128 132 135 141 147 147 149 147 147 147 145 144
316 318 317 311 308 304 297 291 290 300 308 308 304 301 299 293 283 270 244 232 236 259 247 196 176 173 172 185 186 182 179 177 175 176 180 179 176 175 171 172 176 176 176 177 184 190 184 175 168 167 171 168 169 169 169 174 179 190 194 183 180 182 174 184 202 193 189 178 151 103 100 121 138 121 118 132 131 136 143 150 153 154 155 152 150 150 149 148
314 316 317 311 306 302 295 289 288 297 307 308 304 299 296 290 277 259 241 228 225 239 223 200 186 173 176 190 188 185 182 179 178 177 180 181 177 175 175 177 179 177 176 177 185 189 183 175 169 170 171 170 177 178 180 188 188 194 205 192 183 185 178 181 195 204 207 184 162 171 121 134 149 131 123 133 132 136 146 153 158 161 160 158 156 152 151 152
311 314 315 310 303 300 293 287 286 295 307 309 305 298 295 290 272 255 242 228 227 226 219 223 193 176 197 199 187 189 187 181 180 179 179 181 178 175 177 181 182 177 175 178 187 190 185 178 173 175 180 184 188 189 194 197 190 194 201 191 186 188 187 183 188 206 211 196 194 199 161 155 157 143 133 137 136 137 149 157 160 165 166 164 157 151 152 152
309 310 313 309 301 297 291 285 285 293 306 309 305 299 295 289 272 259 244 230 229 213 213 234 193 178 219 209 192 192 188 182 182 181 179 179 178 176 178 184 185 178 174 179 189 191 187 183 184 187 188 190 194 198 207 207 198 199 198 192 188 190 195 191 193 214 213 203 215 208 178 172 170 158 145 147 147 142 150 162 163 166 170 169 161 157 160 157
305 306 309 306 299 293 288 283 282 290 303 309 306 300 296 292 277 261 240 228 229 211 206 219 195 189 219 211 201 194 187 184 183 181 179 178 178 178 180 183 182 180 180 182 189 193 192 191 194 196 193 194 199 205 216 219 204 198 198 198 195 197 201 194 207 227 220 207 214 207 190 182 181 172 160 160 160 151 153 161 162 164 167 169 167 164 164 162
301 302 305 304 297 290 285 280 280 286 299 307 305 301 300 296 281 263 240 226 225 215 208 211 209 216 219 208 202 193 187 186 184 182 179 177 179 179 181 181 178 183 187 183 188 194 197 200 202 200 198 199 199 205 214 214 202 198 201 203 205 210 205 197 216 235 227 216 221 215 200 186 186 185 177 173 168 161 160 162 160 161 163 161 159 158 159 156
295 297 300 300 294 288 282 276 276 282 294 304 303 299 298 293 284 270 251 232 225 220 215 215 219 225 221 206 196 191 189 188 187 184 179 178 179 179 183 182 180 186 187 183 185 189 197 206 206 201 202 201 199 203 209 211 208 203 202 206 210 209 201 204 222 238 232 218 224 226 206 188 198 202 190 181 177 175 174 170 166 165 166 162 158 155 155 154
291 292 295 296 291 285 280 273 273 278 289 300 299 296 294 288 284 275 260 242 229 226 222 220 216 214 215 206 193 190 188 189 189 184 181 179 176 178 187 185 184 189 188 189 189 188 198 206 202 200 205 204 204 207 207 211 213 207 203 209 211 203 204 213 224 235 231 215 217 225 207 198 214 215 201 191 189 189 188 180 175 172 170 168 167 165 165 164
286 287 291 292 286 283 278 269 270 274 284 295 293 291 293 284 284 283 270 249 233 228 219 212 207 206 211 209 194 187 182 187 191 187 183 180 177 179 186 186 186 190 191 193 195 193 197 200 198 203 206 204 206 207 206 208 210 209 213 218 217 213 218 226 226 227 223 214 213 213 208 211 222 217 205 203 203 198 196 191 184 180 176 174 176 177 176 175
282 282 286 287 282 280 276 268 266 270 279 289 289 288 289 281 283 289 283 266 244 230 216 208 204 204 209 205 186 177 177 186 191 191 185 179 181 181 181 187 190 194 194 192 194 194 194 201 203 203 203 202 202 204 206 207 207 208 216 224 232 233 232 229 220 214 212 216 214 208 212 219 221 217 207 208 212 206 203 200 194 190 186 183 182 182 182 185
278 278 282 282 278 274 273 269 263 264 274 283 285 285 285 277 282 291 292 286 255 228 214 206 201 201 202 195 177 170 177 186 189 194 188 180 185 183 182 190 189 193 194 187 192 198 196 202 200 194 197 199 199 201 202 204 214 213 204 216 228 230 223 211 207 210 213 219 215 211 221 231 221 218 214 218 221 215 212 210 203 201 200 195 189 185 185 189
275 276 278 278 275 268 268 267 260 259 267 277 280 281 284 274 279 293 294 274 237 215 205 198 194 195 193 189 173 166 179 190 187 194 191 184 187 185 186 191 187 190 188 180 191 202 194 191 193 194 196 196 198 202 199 203 221 216 180 208 221 212 203 197 199 210 212 211 212 212 220 233 236 230 223 224 227 224 220 217 211 210 210 206 201 196 193 193
274 273 272 274 272 266 262 258 255 257 261 270 277 277 280 269 273 286 285 264 215 196 200 196 192 190 187 186 173 166 190 195 185 189 190 188 189 185 187 191 189 189 183 179 186 195 191 189 194 195 192 192 196 200 196 199 220 210 172 205 204 179 184 190 195 205 205 210 217 213 217 236 245 237 227 222 223 227 230 228 221 219 216 213 211 206 202 199
273 269 268 269 268 265 262 253 249 253 256 265 274 276 273 264 271 251 250 266 211 187 196 191 189 188 184 185 177 174 194 187 181 184 184 187 186 179 183 187 186 187 185 185 188 190 194 195 193 190 190 195 193 193 194 193 207 204 181 185 166 152 164 179 195 206 211 223 226 214 216 242 251 229 220 226 227 231 237 238 232 227 223 218 216 213 210 207
271 267 264 264 263 262 260 255 247 246 250 260 270 274 268 238 224 214 220 233 192 191 192 182 184 188 184 183 181 181 182 177 182 179 174 181 182 176 180 181 179 183 187 192 191 186 191 193 190 187 192 198 189 192 195 189 194 193 173 162 148 145 158 172 194 203 214 230 230 216 214 237 259 243 219 231 248 248 239 236 234 231 228 224 219 216 215 213
269 264 261 259 259 258 257 254 246 241 243 252 263 269 261 228 220 221 222 219 207 202 191 181 182 186 182 181 183 184 181 179 183 175 169 176 182 180 182 179 177 180 186 192 184 177 182 183 185 186 188 191 188 191 192 187 185 179 170 164 154 154 171 182 186 201 227 232 211 212 219 229 248 257 243 240 259 259 237 226 230 233 232 228 222 219 218 216
266 260 257 255 254 254 254 249 241 237 234 241 255 258 243 231 225 222 222 222 213 196 188 185 184 183 182 182 184 184 182 180 181 179 175 176 181 185 183 180 180 177 182 187 179 174 178 181 186 187 184 185 186 184 183 183 180 177 180 183 183 178 183 201 197 208 238 234 184 206 224 234 248 257 260 261 258 253 245 229 224 230 234 234 228 222 220 217
264 257 252 252 250 249 251 247 238 233 227 230 243 241 234 240 232 215 209 210 199 186 189 191 186 182 182 184 187 184 181 182 182 182 181 178 181 187 187 185 184 184 187 185 180 177 175 181 191 190 186 185 183 180 180 183 188 192 194 195 203 202 198 219 217 225 245 231 203 221 229 249 261 258 257 261 251 244 247 235 221 220 224 229 230 226 223 219
262 255 246 246 248 245 246 245 238 231 222 221 228 225 230 242 237 214 211 214 215 203 197 191 185 183 185 187 188 183 179 183 184 182 183 184 186 190 191 189 188 193 195 186 187 187 180 183 192 192 191 185 183 189 189 188 194 199 200 205 218 225 225 235 230 235 247 213 178 207 230 249 261 257 256 260 247 238 243 239 230 224 219 221 223 223 225 223
261 255 244 240 243 243 242 241 236 229 220 214 214 215 225 235 233 220 213 207 202 206 202 193 186 186 189 190 190 186 181 182 184 185 188 190 191 192 194 194 191 193 195 187 189 195 194 191 189 192 193 187 189 194 192 190 196 199 201 211 226 232 228 249 288 279 279 271 202 203 230 245 258 269 265 261 252 245 248 242 235 229 222 220 217 214 221 225
258 252 242 236 237 239 239 237 231 225 217 208 208 216 226 232 235 227 207 195 193 193 192 193 190 191 193 192 193 191 186 182 184 188 192 195 198 197 196 199 197 195 196 191 186 194 202 185 180 192 193 190 196 195 192 195 193 195 204 211 221 226 217 237 265 256 264 275 240 210 239 249 255 262 250 243 250 252 250 242 236 232 224 221 217 210 214 220
256 251 243 236 232 233 235 233 228 222 214 206 211 220 228 234 239 243 213 191 191 188 192 199 196 196 196 194 194 192 189 186 187 190 194 197 203 203 199 201 202 200 202 204 197 200 205 180 171 193 195 193 200 201 202 207 198 195 210 214 215 216 217 236 251 221 230 261 237 213 248 255 246 237 199 217 254 267 264 248 235 233 228 224 221 215 213 216
251 248 244 236 228 228 231 228 224 219 210 208 216 224 230 233 236 242 229 207 201 194 206 214 200 199 203 199 195 192 192 191 188 192 195 195 201 205 201 202 207 206 206 213 214 207 210 195 169 186 200 200 202 205 208 211 209 208 213 211 210 214 211 212 234 260 253 270 266 220 239 251 244 239 214 237 264 273 271 255 235 232 234 232 226 221 219 217
248 245 244 237 226 223 224 222 221 214 206 211 219 225 231 232 234 242 239 225 219 209 214 228 209 204 209 206 197 192 194 194 189 194 199 196 201 209 206 206 211 211 206 212 216 208 212 215 178 181 202 206 201 204 206 208 210 211 212 206 207 221 223 202 224 270 275 282 286 238 225 245 233 219 236 263 277 277 263 258 243 234 235 236 231 226 224 220
248 242 240 234 223 218 217 217 216 208 205 213 219 223 230 231 231 240 242 230 221 216 217 229 223 210 210 210 202 192 196 199 195 198 202 200 202 208 207 206 208 209 205 208 215 209 208 221 201 178 197 206 200 203 209 208 204 205 208 206 203 211 226 223 229 249 262 282 291 262 263 275 228 213 276 279 276 278 258 246 241 235 236 236 232 230 229 225
248 243 240 232 220 213 211 212 213 209 209 217 223 225 228 230 229 236 243 237 228 224 219 215 215 214 209 209 207 197 197 201 200 200 202 202 205 210 213 211 209 209 206 204 209 209 203 215 210 182 190 206 205 205 212 212 205 205 210 213 211 208 215 232 227 213 229 260 276 279 283 292 285 287 304 294 268 270 250 233 229 231 237 236 231 228 228 229
241 234 236 228 216 211 209 207 209 210 212 220 225 226 229 231 231 233 238 240 237 232 224 218 212 207 205 207 209 201 197 200 202 203 204 205 210 216 219 216 211 211 209 204 206 209 204 210 214 203 197 207 207 208 213 211 204 207 215 220 222 218 220 238 242 199 204 240 257 269 279 283 273 279 307 309 288 274 243 227 228 237 241 238 233 225 219 223
235 227 228 222 213 211 203 199 208 212 213 221 225 227 230 230 229 230 233 236 240 237 230 228 220 209 207 204 201 199 198 201 204 207 209 210 213 219 220 215 208 206 205 203 205 209 206 209 216 214 204 206 211 215 219 217 210 209 218 223 227 228 228 240 252 226 222 238 241 253 268 272 260 268 306 317 309 272 233 224 233 248 245 236 235 233 225 219
235 229 224 216 211 209 198 194 212 217 216 223 227 228 232 230 226 226 229 230 231 230 227 230 226 215 210 202 194 193 197 202 206 208 210 212 217 222 221 217 211 206 203 202 206 210 209 208 211 210 200 200 209 215 216 217 217 219 223 225 226 229 228 236 244 235 242 248 245 257 274 277 285 299 305 311 308 251 224 229 247 244 234 229 233 238 237 229
232 231 225 215 210 207 200 198 206 209 216 225 227 226 228 230 228 224 225 229 230 224 222 226 223 216 210 203 198 193 193 194 199 204 205 207 215 221 220 218 216 213 209 206 208 213 212 207 209 211 210 206 208 214 213 212 217 223 226 224 224 224 223 228 233 230 239 245 238 246 266 282 303 311 308 310 298 249 236 249 262 251 238 241 241 238 234 231
223 221 218 212 210 210 208 208 205 203 215 223 223 227 224 224 229 225 223 228 231 227 224 225 221 219 215 208 203 200 198 195 193 198 199 201 209 213 213 215 216 215 214 211 208 210 213 212 213 216 220 223 224 223 218 217 219 219 220 222 223 222 221 225 233 235 237 240 239 245 258 274 285 290 297 295 278 264 259 262 265 257 245 246 249 244 235 227
215 212 211 207 208 211 214 217 213 212 220 221 222 229 224 218 226 226 222 225 229 228 227 227 221 216 217 211 205 204 204 202 202 201 198 199 205 207 205 208 213 214 215 212 204 203 210 216 217 219 223 230 236 235 224 223 227 224 223 223 221 219 217 220 229 237 240 245 251 252 252 262 273 280 289 289 277 272 271 267 263 253 244 245 249 247 241 233
214 213 213 207 202 204 210 217 217 216 220 221 223 228 223 217 221 220 220 222 226 228 227 229 225 217 209 204 202 202 205 205 207 206 202 202 204 204 204 207 210 213 214 212 208 207 213 219 220 221 226 231 235 238 237 233 232 232 231 225 220 218 218 221 227 234 243 250 258 268 262 261 273 282 286 285 279 275 274 272 266 257 252 252 251 247 242 237
217 215 214 210 209 210 213 219 219 219 222 224 226 229 225 218 215 215 218 219 225 229 223 218 224 220 210 203 201 201 205 206 205 206 206 206 204 202 205 209 210 212 213 212 213 215 217 223 226 223 225 231 234 237 238 235 230 232 231 223 217 217 218 222 227 233 242 249 255 267 271 269 274 282 286 284 281 281 282 281 273 261 256 254 251 247 245 240
221 217 215 213 215 217 219 220 219 219 224 225 227 232 230 225 219 215 215 213 218 226 222 217 223 222 215 209 205 202 204 202 201 206 208 206 207 205 204 209 214 213 212 209 209 212 215 224 229 222 218 229 234 235 233 228 223 223 220 212 209 209 211 218 227 233 240 248 256 263 269 274 278 284 287 285 285 287 287 285 278 264 252 249 248 248 248 245
225 219 218 215 216 217 217 219 216 214 220 223 223 227 228 226 222 217 216 217 218 223 223 223 225 224 221 220 216 211 210 206 206 212 211 208 211 208 201 204 209 205 206 211 208 203 206 217 223 216 214 223 228 226 217 211 212 211 205 200 200 203 210 219 226 235 240 248 260 264 267 275 279 274 275 283 290 292 288 282 276 263 249 245 247 247 246 245
235 224 221 218 218 218 216 217 215 209 216 222 219 220 223 223 222 218 216 220 222 223 225 226 225 222 222 225 222 219 219 218 215 216 216 215 216 215 209 210 214 208 200 209 213 201 202 212 212 211 217 218 211 206 198 197 209 214 208 205 206 211 219 225 228 238 244 243 247 257 264 273 278 273 275 285 293 292 284 274 267 259 248 243 245 245 243 242
Height
3185 3184 3184 3183 3182 3182 3181 3181 3180 3179 3178 3177 3177 3176 3175 3174 3173 3172 3171 3170 3169 3169 3168 3168 3169 3170 3171 3172 3173 3174 3175 3177 3178 3179 3181 3182 3183 3185 3186 3187 3189 3190 3191 3192 3193 3194 3195 3197 3198 3198 3199 3199 3199 3200 3201 3201 3201 3202 3204 3203 3203 3205 3206 3208 3210 3210 3210 3212 3211 3211 3212 3213 3212 3212 3212 3212 3212 3211 3211 3211 3211 3211 3212 3212 3212 3212 3213 3213
3184 3183 3182 3181 3181 3180 3180 3179 3178 3177 3177 3176 3175 3174 3173 3172 3170 3169 3169 3168 3167 3166 3166 3166 3167 3168 3169 3170 3171 3172 3173 3175 3176 3177 3179 3181 3182 3183 3184 3186 3188 3189 3191 3192 3193 3194 3195 3197 3198 3198 3199 3200 3201 3201 3202 3202 3202 3203 3204 3204 3204 3206 3207 3208 3210 3210 3211 3212 3211 3211 3213 3213 3213 3212 3212 3213 3213 3212 3212 3211 3210 3211 3211 3212 3212 3213 3214 3214
3183 3182 3181 3180 3179 3178 3178 3177 3176 3175 3175 3174 3173 3172 3171 3169 3168 3167 3166 3166 3165 3165 3164 3165 3166 3166 3167 3168 3168 3170 3172 3173 3174 3176 3178 3179 3180 3182 3183 3185 3187 3189 3190 3192 3193 3194 3195 3197 3198 3199 3200 3201 3202 3202 3203 3203 3204 3204 3204 3205 3206 3207 3207 3208 3210 3210 3211 3212 3212 3212 3213 3213 3213 3212 3213 3214 3214 3213 3212 3211 3210 3211 3211 3212 3212 3213 3214 3214
3182 3181 3179 3178 3178 3177 3176 3175 3174 3174 3173 3172 3171 3170 3169 3168 3166 3165 3164 3164 3163 3163 3163 3163 3164 3164 3165 3165 3167 3168 3170 3172 3173 3175 3176 3177 3179 3180 3182 3184 3186 3188 3190 3191 3192 3194 3195 3197 3198 3199 3200 3203 3203 3202 3204 3204 3205 3205 3205 3206 3207 3208 3208 3208 3209 3210 3211 3212 3212 3212 3213 3213 3212 3213 3213 3214 3215 3215 3214 3211 3210 3211 3211 3212 3213 3213 3213 3214
3180 3179 3178 3177 3176 3175 3174 3174 3173 3172 3171 3170 3169 3168 3167 3166 3165 3163 3163 3163 3162 3162 3162 3162 3162 3163 3163 3164 3165 3166 3169 3171 3172 3173 3175 3176 3178 3179 3181 3183 3185 3187 3189 3190 3192 3193 3195 3197 3198 3199 3201 3203 3203 3203 3205 3204 3205 3206 3206 3207 3207 3208 3209 3208 3209 3209 3210 3212 3212 3213 3214 3213 3213 3213 3213 3213 3214 3214 3213 3211 3210 3210 3210 3212 3213 3213 3213 3214
3179 3178 3177 3176 3175 3174 3173 3172 3171 3170 3169 3169 3168 3166 3165 3164 3163 3162 3162 3161 3161 3161 3161 3161 3161 3161 3162 3162 3163 3165 3168 3169 3169 3171 3173 3174 3177 3178 3180 3182 3184 3186 3188 3190 3191 3193 3195 3197 3198 3200 3202 3203 3204 3204 3205 3204 3205 3207 3207 3206 3207 3208 3209 3208 3209 3210 3211 3212 3213 3214 3214 3214 3213 3213 3212 3212 3212 3212 3211 3210 3209 3210 3210 3211 3212 3213 3213 3214
3178 3177 3176 3174 3174 3172 3171 3170 3170 3169 3168 3167 3166 3165 3164 3163 3162 3161 3160 3160 3160 3159 3159 3160 3160 3160 3161 3161 3162 3164 3166 3167 3168 3170 3172 3174 3176 3177 3179 3182 3184 3186 3188 3189 3191 3194 3195 3197 3199 3200 3202 3202 3203 3204 3205 3205 3206 3207 3207 3207 3207 3208 3209 3209 3210 3210 3211 3213 3213 3214 3214 3214 3214 3213 3212 3211 3211 3211 3211 3210 3210 3210 3210 3211 3212 3213 3214 3215
3177 3175 3174 3173 3172 3171 3170 3169 3168 3167 3167 3166 3165 3163 3163 3161 3161 3160 3159 3159 3158 3158 3158 3158 3158 3159 3159 3160 3161 3163 3165 3166 3168 3169 3171 3173 3175 3176 3179 3181 3183 3185 3187 3189 3191 3193 3195 3197 3199 3200 3201 3202 3203 3204 3205 3206 3207 3208 3208 3207 3207 3208 3209 3210 3211 3211 3212 3213 3214 3214 3214 3214 3213 3212 3212 3212 3212 3211 3211 3211 3211 3212 3212 3212 3213 3214 3215 3216
3175 3174 3173 3172 3171 3170 3169 3168 3167 3166 3165 3165 3163 3162 3161 3160 3160 3159 3158 3158 3157 3156 3156 3156 3156 3157 3158 3159 3160 3162 3163 3165 3167 3169 3170 3173 3174 3176 3178 3180 3182 3184 3187 3188 3190 3192 3194 3197 3198 3199 3200 3201 3202 3204 3205 3206 3207 3207 3208 3207 3208 3209 3209 3211 3212 3212 3213 3213 3214 3213 3213 3212 3212 3213 3213 3213 3213 3212 3212 3212 3212 3213 3213 3214 3214 3215 3216 3217
3174 3173 3171 3170 3169 3168 3167 3167 3166 3165 3164 3163 3162 3161 3160 3159 3159 3158 3157 3156 3156 3155 3155 3154 3154 3155 3156 3157 3159 3161 3162 3164 3166 3168 3170 3172 3173 3175 3177 3180 3182 3184 3187 3188 3189 3191 3194 3196 3197 3198 3199 3200 3202 3204 3205 3206 3206 3207 3207 3208 3208 3209 3210 3211 3212 3212 3212 3213 3214 3213 3213 3212 3213 3214 3214 3213 3213 3213 3213 3213 3214 3214 3214 3215 3216 3217 3217 3218
3173 3171 3170 3169 3168 3167 3166 3165 3165 3164 3163 3162 3161 3160 3159 3158 3158 3157 3157 3156 3155 3154 3154 3153 3153 3154 3155 3156 3158 3160 3162 3164 3166 3168 3170 3172 3173 3174 3177 3180 3182 3184 3186 3188 3189 3191 3193 3195 3196 3198 3200 3201 3202 3203 3204 3206 3206 3206 3207 3207 3208 3209 3210 3212 3213 3212 3213 3213 3214 3213 3213 3213 3214 3215 3214 3213 3214 3214 3214 3215 3215 3215 3216 3216 3217 3218 3218 3219
3171 3170 3169 3167 3166 3165 3165 3164 3164 3163 3162 3161 3160 3159 3158 3158 3157 3157 3156 3155 3154 3154 3153 3152 3152 3153 3154 3156 3157 3158 3160 3163 3165 3167 3169 3171 3172 3174 3176 3179 3181 3184 3186 3188 3189 3191 3193 3194 3196 3198 3199 3201 3202 3203 3204 3205 3207 3207 3208 3208 3209 3210 3211 3213 3213 3213 3213 3213 3214 3213 3213 3215 3215 3215 3214 3214 3214 3215 3215 3216 3216 3217 3217 3218 3218 3219 3219 3219
3170 3169 3167 3166 3165 3164 3163 3163 3162 3162 3161 3160 3159 3158 3158 3157 3156 3156 3155 3155 3154 3154 3153 3152 3152 3153 3154 3155 3156 3157 3160 3162 3165 3167 3169 3171 3172 3174 3176 3178 3181 3183 3185 3188 3189 3191 3193 3194 3196 3197 3198 3200 3201 3203 3204 3205 3207 3208 3209 3210 3209 3211 3211 3212 3213 3213 3214 3214 3214 3214 3214 3216 3216 3215 3215 3215 3215 3215 3216 3217 3217 3218 3218 3219 3219 3219 3220 3220
3168 3167 3166 3165 3164 3163 3162 3161 3161 3161 3160 3159 3158 3157 3157 3156 3156 3155 3155 3155 3154 3154 3153 3153 3153 3153 3154 3154 3156 3157 3159 3162 3164 3166 3169 3171 3173 3174 3176 3178 3181 3183 3185 3187 3188 3191 3193 3194 3196 3197 3198 3199 3200 3202 3204 3206 3207 3208 3210 3210 3210 3210 3211 3211 3212 3213 3214 3214 3214 3215 3215 3217 3217 3216 3216 3216 3216 3216 3217 3218 3218 3218 3219 3219 3219 3220 3220 3220
3167 3166 3165 3163 3162 3161 3161 3160 3160 3159 3159 3158 3157 3157 3156 3155 3155 3155 3155 3155 3154 3154 3154 3153 3153 3153 3154 3154 3155 3157 3159 3161 3164 3166 3168 3171 3173 3175 3177 3179 3181 3183 3185 3186 3188 3191 3193 3194 3196 3198 3198 3199 3201 3203 3205 3206 3207 3209 3208 3208 3209 3210 3210 3211 3211 3212 3214 3215 3215 3215 3216 3218 3218 3216 3217 3217 3216 3217 3218 3219 3219 3219 3220 3220 3220 3220 3221 3221
3165 3164 3163 3162 3161 3160 3159 3159 3158 3158 3158 3157 3156 3156 3155 3155 3154 3154 3154 3154 3154 3154 3154 3154 3154 3154 3155 3156 3156 3157 3159 3161 3163 3165 3168 3170 3172 3175 3177 3179 3181 3183 3185 3187 3189 3191 3193 3194 3196 3197 3198 3200 3202 3203 3205 3206 3207 3208 3206 3206 3208 3209 3210 3211 3210 3211 3213 3214 3215 3215 3216 3218 3218 3217 3217 3217 3217 3218 3219 3220 3220 3220 3220 3220 3221 3221 3221 3221
3164 3163 3162 3161 3159 3159 3158 3157 3157 3157 3157 3156 3155 3155 3154 3154 3153 3153 3153 3154 3154 3154 3154 3154 3155 3155 3155 3155 3156 3158 3159 3161 3163 3165 3167 3169 3171 3174 3177 3179 3181 3183 3185 3187 3189 3191 3193 3194 3196 3197 3198 3200 3202 3203 3203 3203 3204 3206 3205 3204 3207 3208 3209 3211 3211 3211 3212 3213 3215 3216 3217 3218 3217 3217 3217 3218 3218 3218 3219 3220 3220 3220 3220 3221 3221 3221 3221 3221
3162 3161 3160 3159 3158 3157 3157 3156 3156 3155 3155 3155 3154 3153 3153 3153 3153 3152 3153 3153 3153 3154 3154 3154 3154 3156 3155 3154 3156 3158 3158 3160 3163 3165 3167 3169 3171 3174 3177 3179 3181 3183 3186 3188 3189 3191 3193 3195 3196 3198 3199 3200 3201 3201 3200 3200 3202 3204 3204 3204 3206 3208 3209 3210 3210 3211 3211 3213 3215 3216 3217 3217 3217 3217 3217 3218 3218 3218 3219 3220 3220 3220 3220 3221 3221 3221 3221 3221
3161 3160 3159 3158 3157 3156 3155 3155 3154 3154 3154 3153 3153 3152 3152 3152 3152 3152 3152 3152 3152 3153 3154 3154 3154 3155 3155 3154 3155 3156 3158 3160 3162 3164 3166 3169 3171 3173 3176 3179 3181 3184 3186 3188 3189 3191 3193 3195 3196 3197 3197 3198 3199 3199 3199 3199 3200 3202 3203 3203 3205 3207 3208 3209 3210 3210 3211 3213 3214 3215 3216 3217 3217 3217 3217 3218 3218 3218 3219 3220 3220 3220 3221 3221 3221 3221 3221 3221
3159 3158 3157 3156 3155 3154 3154 3153 3153 3153 3153 3152 3152 3152 3151 3151 3151 3151 3150 3151 3151 3152 3153 3153 3153 3154 3154 3154 3154 3155 3157 3160 3162 3164 3166 3168 3171 3174 3176 3179 3182 3184 3186 3188 3189 3190 3192 3193 3194 3194 3195 3196 3198 3198 3198 3199 3200 3201 3202 3202 3203 3205 3206 3208 3210 3209 3210 3213 3213 3214 3216 3217 3217 3217 3217 3217 3218 3218 3218 3219 3219 3220 3220 3221 3221 3221 3221 3221
3157 3156 3155 3155 3154 3153 3152 3152 3152 3152 3152 3151 3151 3150 3150 3150 3150 3149 3149 3150 3150 3151 3151 3152 3152 3153 3153 3153 3153 3155 3157 3159 3161 3163 3165 3168 3171 3174 3176 3178 3181 3183 3185 3188 3189 3189 3191 3192 3192 3193 3195 3196 3197 3198 3198 3199 3200 3201 3201 3202 3202 3203 3203 3207 3208 3208 3209 3211 3212 3213 3215 3216 3216 3216 3216 3217 3217 3218 3218 3218 3218 3219 3220 3220 3221 3221 3221 3221
3155 3154 3153 3153 3152 3151 3151 3150 3151 3151 3150 3150 3149 3149 3150 3150 3149 3149 3148 3148 3149 3149 3150 3150 3151 3151 3151 3151 3152 3154 3156 3158 3160 3162 3164 3167 3170 3173 3175 3177 3180 3182 3184 3186 3187 3188 3190 3190 3191 3192 3193 3194 3195 3197 3198 3199 3200 3200 3200 3201 3201 3201 3203 3205 3206 3207 3207 3210 3211 3212 3213 3215 3215 3215 3215 3216 3217 3217 3217 3217 3218 3218 3219 3220 3220 3221 3221 3221
3152 3152 3151 3151 3150 3150 3149 3149 3149 3149 3149 3149 3148 3148 3148 3149 3148 3148 3147 3147 3147 3147 3148 3149 3150 3150 3150 3150 3151 3153 3155 3157 3159 3160 3163 3166 3169 3173 3174 3176 3179 3181 3183 3184 3185 3187 3188 3188 3190 3191 3192 3193 3195 3197 3198 3199 3199 3199 3199 3199 3199 3200 3202 3203 3204 3205 3206 3208 3210 3211 3212 3213 3212 3213 3214 3214 3215 3216 3216 3216 3216 3217 3218 3219 3220 3220 3221 3221
3149 3149 3149 3148 3148 3148 3147 3147 3147 3148 3148 3148 3147 3146 3147 3147 3147 3147 3146 3146 3146 3146 3147 3148 3148 3149 3149 3150 3151 3152 3155 3158 3159 3160 3162 3165 3168 3171 3173 3176 3179 3180 3181 3183 3185 3186 3186 3187 3188 3189 3190 3193 3195 3196 3197 3198 3197 3198 3198 3198 3198 3199 3201 3202 3202 3203 3205 3207 3208 3209 3210 3211 3211 3212 3212 3213 3213 3214 3215 3215 3215 3215 3216 3216 3218 3219 3220 3220
3147 3147 3146 3146 3146 3146 3146 3145 3146 3146 3147 3147 3146 3145 3145 3146 3146 3146 3145 3145 3144 3144 3145 3146 3147 3147 3148 3149 3150 3152 3155 3157 3159 3160 3161 3164 3167 3169 3173 3175 3177 3179 3180 3182 3184 3185 3185 3185 3186 3188 3190 3192 3194 3195 3196 3196 3195 3196 3197 3197 3197 3198 3199 3200 3200 3202 3204 3205 3206 3207 3208 3209 3210 3211 3211 3212 3212 3213 3213 3214 3214 3214 3214 3214 3215 3217 3218 3219
3144 3144 3144 3143 3144 3145 3144 3144 3144 3145 3146 3146 3145 3144 3144 3144 3145 3145 3145 3145 3144 3143 3144 3145 3146 3147 3147 3148 3150 3152 3156 3157 3158 3159 3161 3164 3167 3169 3172 3174 3175 3178 3180 3181 3183 3183 3183 3183 3185 3188 3189 3191 3193 3194 3195 3195 3194 3193 3194 3196 3197 3197 3198 3199 3199 3201 3202 3202 3204 3206 3206 3206 3208 3209 3210 3210 3210 3211 3212 3212 3213 3213 3213 3214 3214 3215 3216 3217
3141 3141 3141 3141 3141 3142 3143 3142 3142 3143 3144 3145 3144 3143 3143 3143 3144 3145 3145 3144 3141 3141 3142 3143 3145 3146 3146 3148 3149 3152 3155 3154 3155 3157 3159 3162 3165 3167 3170 3172 3173 3175 3177 3180 3181 3181 3180 3182 3184 3186 3188 3190 3191 3191 3193 3194 3193 3191 3192 3195 3195 3196 3198 3198 3199 3199 3200 3202 3203 3204 3206 3206 3206 3207 3208 3208 3208 3209 3209 3210 3211 3211 3212 3213 3213 3214 3214 3215
3138 3138 3138 3138 3139 3140 3141 3140 3140 3141 3143 3144 3144 3143 3142 3142 3143 3144 3146 3143 3138 3138 3140 3141 3143 3144 3146 3148 3149 3152 3153 3152 3154 3156 3158 3162 3164 3167 3170 3172 3173 3174 3175 3177 3178 3179 3180 3182 3183 3185 3188 3189 3189 3189 3191 3193 3193 3191 3192 3194 3194 3196 3197 3198 3199 3199 3200 3203 3203 3203 3205 3205 3203 3204 3206 3206 3206 3206 3206 3207 3208 3209 3210 3211 3212 3212 3213 3214
3135 3135 3135 3136 3136 3137 3138 3138 3138 3139 3141 3142 3143 3142 3141 3141 3142 3143 3146 3142 3137 3137 3139 3140 3142 3143 3145 3147 3148 3151 3152 3153 3154 3155 3156 3160 3162 3165 3168 3171 3173 3174 3175 3176 3177 3177 3179 3181 3182 3185 3187 3186 3187 3188 3190 3191 3192 3191 3192 3194 3194 3196 3197 3198 3198 3199 3202 3202 3200 3201 3204 3203 3199 3200 3203 3204 3203 3203 3203 3203 3205 3206 3207 3208 3209 3210 3211 3212
3132 3132 3132 3133 3134 3135 3136 3136 3137 3137 3139 3140 3141 3142 3141 3140 3141 3142 3143 3140 3136 3137 3137 3139 3141 3142 3143 3146 3148 3150 3151 3153 3154 3154 3156 3160 3162 3164 3166 3169 3172 3174 3175 3176 3177 3176 3177 3180 3181 3183 3184 3184 3185 3188 3189 3190 3191 3192 3193 3194 3195 3196 3198 3199 3199 3200 3201 3199 3196 3197 3201 3202 3198 3195 3199 3200 3199 3200 3201 3201 3202 3203 3205 3206 3207 3208 3209 3210
3129 3129 3129 3130 3131 3132 3134 3134 3134 3135 3137 3139 3140 3141 3140 3140 3140 3139 3138 3136 3136 3136 3136 3138 3139 3141 3143 3145 3147 3149 3151 3152 3153 3154 3156 3158 3161 3163 3165 3167 3169 3172 3174 3175 3176 3176 3177 3179 3180 3181 3182 3183 3185 3187 3188 3190 3191 3192 3194 3194 3195 3196 3197 3198 3199 3200 3198 3194 3194 3196 3199 3201 3198 3194 3196 3197 3198 3198 3199 3200 3200 3200 3202 3203 3204 3205 3206 3207
3126 3126 3126 3127 3128 3130 3131 3132 3132 3133 3135 3137 3139 3140 3140 3140 3138 3136 3134 3135 3135 3134 3136 3137 3138 3140 3142 3145 3146 3148 3149 3151 3152 3154 3155 3157 3159 3161 3162 3164 3166 3168 3170 3172 3174 3175 3177 3178 3178 3180 3181 3183 3185 3186 3188 3189 3191 3192 3193 3194 3194 3194 3196 3196 3196 3196 3193 3191 3193 3196 3197 3197 3195 3194 3195 3195 3196 3197 3196 3198 3199 3199 3199 3200 3201 3202 3203 3204
3123 3123 3123 3124 3126 3127 3129 3129 3131 3131 3133 3135 3137 3139 3140 3138 3135 3132 3133 3134 3133 3133 3135 3137 3138 3140 3142 3144 3146 3147 3149 3150 3151 3153 3155 3157 3159 3161 3162 3163 3164 3165 3166 3168 3171 3172 3174 3177 3177 3178 3180 3182 3184 3185 3187 3188 3190 3191 3191 3192 3191 3191 3193 3194 3191 3191 3190 3189 3192 3195 3195 3194 3192 3191 3192 3192 3193 3194 3194 3195 3196 3196 3197 3197 3198 3200 3201 3202
3120 3120 3121 3121 3123 3125 3126 3127 3129 3130 3131 3133 3135 3137 3139 3136 3132 3131 3132 3132 3132 3133 3134 3135 3137 3140 3141 3143 3144 3145 3147 3149 3150 3153 3155 3156 3158 3159 3160 3161 3163 3164 3165 3166 3168 3168 3170 3173 3175 3176 3178 3179 3182 3184 3185 3186 3188 3189 3189 3190 3189 3187 3189 3189 3187 3187 3187 3187 3191 3194 3193 3191 3189 3188 3189 3189 3190 3191 3191 3192 3192 3193 3194 3194 3195 3196 3198 3199
3117 3117 3118 3119 3120 3122 3124 3125 3127 3128 3129 3130 3133 3135 3135 3133 3131 3130 3130 3131 3132 3133 3133 3134 3136 3139 3140 3142 3143 3144 3145 3147 3149 3152 3153 3154 3155 3156 3158 3159 3160 3162 3164 3164 3165 3166 3167 3169 3171 3174 3176 3178 3180 3182 3184 3185 3186 3187 3188 3189 3188 3186 3187 3187 3186 3186 3186 3186 3188 3190 3190 3188 3187 3186 3187 3188 3188 3188 3189 3189 3189 3190 3190 3191 3191 3193 3194 3195
3115 3115 3115 3116 3117 3119 3121 3123 3124 3126 3127 3128 3131 3132 3131 3131 3130 3129 3129 3129 3131 3132 3133 3134 3135 3137 3138 3139 3141 3142 3144 3145 3147 3150 3151 3153 3154 3154 3156 3158 3159 3161 3162 3163 3164 3166 3167 3167 3169 3172 3174 3177 3179 3180 3182 3183 3183 3185 3186 3187 3186 3186 3187 3188 3187 3188 3190 3187 3184 3185 3186 3185 3185 3184 3184 3186 3186 3186 3186 3186 3187 3187 3187 3188 3188 3189 3190 3191
3112 3112 3113 3114 3115 3116 3118 3120 3122 3124 3125 3126 3128 3128 3128 3129 3128 3128 3128 3128 3129 3130 3131 3132 3133 3134 3135 3136 3138 3140 3142 3144 3145 3147 3149 3150 3152 3153 3155 3157 3158 3159 3161 3162 3163 3165 3166 3166 3168 3171 3172 3174 3176 3178 3180 3181 3182 3184 3184 3184 3185 3187 3188 3188 3186 3186 3187 3184 3180 3182 3184 3182 3182 3181 3182 3184 3185 3184 3185 3184 3184 3184 3184 3185 3185 3186 3187 3188
3110 3110 3110 3111 3112 3114 3116 3118 3120 3121 3123 3124 3124 3124 3125 3126 3126 3126 3126 3127 3128 3129 3130 3130 3130 3131 3132 3133 3135 3138 3140 3141 3143 3145 3146 3148 3148 3150 3153 3155 3156 3157 3160 3162 3163 3164 3164 3164 3166 3169 3171 3172 3174 3176 3178 3179 3180 3182 3182 3181 3183 3184 3184 3186 3186 3183 3182 3179 3176 3178 3181 3180 3180 3180 3180 3182 3183 3183 3183 3182 3182 3182 3182 3182 3183 3183 3184 3185
3107 3108 3108 3109 3110 3112 3114 3116 3117 3119 3121 3121 3121 3122 3122 3123 3125 3125 3125 3125 3126 3127 3128 3129 3128 3129 3131 3131 3133 3136 3138 3139 3141 3143 3143 3145 3146 3148 3150 3153 3154 3155 3159 3161 3162 3163 3163 3162 3164 3167 3169 3170 3173 3174 3175 3176 3178 3180 3180 3181 3182 3181 3180 3182 3183 3181 3180 3178 3175 3175 3177 3176 3176 3178 3180 3181 3181 3181 3181 3180 3180 3180 3180 3180 3180 3181 3182 3183
3105 3106 3106 3106 3108 3109 3111 3113 3115 3116 3117 3118 3119 3120 3119 3121 3123 3123 3123 3123 3124 3125 3126 3127 3128 3128 3129 3130 3131 3133 3135 3137 3139 3141 3141 3142 3144 3146 3148 3150 3152 3154 3156 3159 3160 3162 3163 3162 3162 3165 3167 3168 3170 3170 3172 3173 3175 3177 3178 3179 3180 3180 3180 3180 3180 3180 3180 3178 3176 3176 3175 3172 3173 3177 3179 3179 3179 3179 3179 3179 3179 3178 3178 3178 3178 3179 3180 3181
3103 3104 3104 3104 3106 3107 3109 3111 3112 3113 3114 3116 3117 3117 3117 3118 3121 3122 3122 3122 3122 3123 3124 3125 3126 3127 3128 3129 3130 3131 3133 3135 3137 3138 3140 3141 3142 3144 3145 3147 3149 3151 3154 3156 3158 3159 3161 3162 3162 3163 3165 3166 3167 3168 3169 3170 3172 3174 3175 3175 3176 3178 3179 3178 3176 3177 3179 3178 3177 3177 3175 3173 3173 3176 3177 3177 3178 3178 3178 3178 3177 3177 3177 3177 3177 3177 3178 3180
3101 3102 3102 3102 3103 3105 3106 3108 3110 3111 3113 3114 3115 3114 3114 3116 3118 3120 3120 3120 3121 3122 3122 3123 3124 3125 3126 3127 3129 3129 3131 3133 3135 3136 3138 3139 3141 3142 3143 3145 3147 3149 3151 3154 3155 3157 3159 3161 3161 3161 3163 3163 3164 3165 3167 3168 3170 3172 3172 3172 3173 3174 3176 3175 3173 3174 3177 3178 3177 3178 3176 3173 3173 3174 3175 3175 3176 3176 3176 3176 3176 3176 3176 3176 3176 3176 3177 3178
3098 3099 3099 3100 3101 3103 3104 3107 3108 3108 3110 3111 3111 3112 3113 3114 3116 3118 3119 3119 3120 3121 3121 3122 3122 3123 3125 3125 3126 3128 3129 3131 3133 3134 3136 3138 3139 3140 3141 3143 3145 3147 3150 3152 3153 3155 3156 3158 3158 3159 3161 3162 3162 3164 3166 3166 3168 3169 3169 3170 3171 3171 3172 3172 3171 3173 3175 3175 3176 3176 3173 3171 3170 3172 3173 3173 3174 3174 3174 3174 3174 3174 3175 3175 3175 3175 3175 3176
3096 3097 3097 3098 3099 3100 3102 3105 3106 3107 3108 3109 3109 3110 3111 3111 3113 3115 3117 3118 3118 3119 3120 3121 3121 3122 3122 3123 3124 3126 3127 3129 3130 3132 3134 3136 3137 3138 3140 3142 3144 3146 3148 3150 3150 3151 3153 3154 3155 3156 3158 3160 3161 3162 3163 3164 3165 3166 3167 3168 3169 3169 3170 3170 3171 3172 3172 3172 3173 3173 3170 3169 3169 3170 3171 3171 3172 3173 3173 3173 3173 3173 3173 3173 3173 3173 3174 3174
3094 3095 3096 3097 3098 3098 3100 3102 3104 3106 3107 3107 3108 3109 3109 3110 3111 3112 3114 3115 3116 3117 3118 3119 3120 3120 3120 3121 3122 3124 3125 3127 3129 3130 3132 3134 3135 3136 3138 3140 3142 3143 3145 3147 3148 3149 3150 3151 3152 3152 3152 3154 3155 3156 3158 3160 3162 3164 3164 3165 3166 3167 3168 3169 3169 3171 3170 3170 3172 3172 3169 3169 3169 3169 3170 3171 3171 3172 3172 3173 3172 3172 3172 3172 3171 3171 3171 3172
3092 3093 3094 3095 3096 3096 3097 3099 3100 3103 3105 3105 3106 3106 3107 3109 3109 3110 3112 3113 3114 3115 3116 3117 3118 3119 3119 3121 3122 3123 3124 3126 3128 3129 3131 3133 3133 3134 3136 3138 3139 3141 3142 3143 3145 3147 3148 3148 3149 3149 3149 3149 3151 3152 3154 3157 3159 3159 3160 3161 3162 3164 3166 3166 3167 3168 3168 3168 3169 3169 3169 3169 3169 3169 3170 3171 3171 3171 3171 3171 3171 3170 3170 3170 3170 3170 3169 3169
3090 3091 3092 3093 3094 3095 3096 3097 3098 3100 3102 3103 3104 3104 3105 3107 3108 3109 3110 3111 3112 3114 3115 3116 3117 3118 3119 3120 3121 3122 3124 3125 3126 3128 3130 3132 3132 3133 3134 3136 3137 3138 3139 3141 3143 3144 3145 3146 3146 3147 3148 3148 3149 3150 3153 3154 3155 3156 3157 3158 3159 3161 3162 3164 3164 3164 3166 3166 3165 3166 3168 3168 3167 3168 3169 3169 3169 3169 3169 3169 3169 3168 3168 3168 3168 3168 3167 3167
3088 3088 3089 3091 3092 3092 3093 3094 3095 3097 3099 3100 3102 3102 3104 3105 3106 3107 3108 3109 3110 3112 3113 3115 3115 3116 3117 3118 3120 3121 3122 3123 3125 3127 3128 3129 3131 3132 3133 3134 3135 3135 3137 3138 3140 3142 3143 3143 3144 3145 3146 3147 3148 3149 3150 3152 3152 3153 3155 3156 3157 3157 3159 3160 3161 3162 3164 3164 3163 3164 3165 3165 3165 3165 3167 3167 3166 3166 3166 3166 3165 3165 3165 3165 3165 3164 3164 3164
3086 3087 3087 3089 3089 3089 3090 3091 3093 3095 3097 3098 3100 3100 3102 3104 3104 3105 3106 3107 3109 3109 3111 3113 3113 3114 3115 3117 3118 3120 3121 3122 3123 3125 3126 3127 3129 3130 3131 3132 3133 3134 3135 3136 3137 3139 3140 3141 3142 3143 3144 3144 3145 3146 3147 3149 3150 3151 3152 3153 3154 3155 3156 3157 3158 3160 3161 3162 3162 3162 3163 3162 3162 3162 3163 3162 3162 3161 3161 3161 3161 3161 3161 3161 3161 3161 3161 3161
3084 3085 3085 3087 3087 3088 3089 3090 3092 3094 3095 3096 3098 3099 3100 3102 3103 3104 3105 3106 3107 3107 3108 3110 3111 3112 3114 3116 3117 3118 3119 3120 3121 3122 3124 3125 3127 3128 3130 3131 3132 3132 3133 3134 3135 3136 3138 3139 3140 3141 3142 3142 3142 3143 3145 3146 3147 3148 3149 3150 3152 3153 3154 3155 3156 3157 3158 3158 3159 3160 3160 3159 3160 3160 3159 3158 3157 3157 3157 3157 3157 3157 3157 3157 3157 3157 3158 3158
3082 3083 3084 3085 3085 3086 3088 3089 3090 3093 3094 3095 3096 3097 3098 3099 3101 3102 3103 3104 3104 3105 3106 3107 3109 3111 3113 3114 3115 3116 3117 3119 3120 3121 3122 3124 3125 3126 3128 3129 3130 3131 3132 3133 3133 3134 3136 3137 3137 3139 3140 3140 3141 3142 3143 3144 3146 3146 3146 3147 3149 3150 3151 3153 3153 3154 3155 3156 3157 3157 3157 3158 3158 3158 3156 3155 3154 3154 3153 3152 3152 3152 3152 3152 3152 3153 3154 3154
3081 3081 3082 3083 3084 3085 3086 3087 3089 3091 3092 3092 3093 3094 3096 3097 3099 3100 3102 3102 3102 3103 3104 3105 3107 3109 3111 3111 3112 3114 3116 3117 3119 3120 3121 3122 3123 3125 3126 3127 3128 3129 3130 3131 3132 3133 3134 3135 3136 3137 3137 3137 3140 3141 3142 3144 3143 3142 3143 3145 3146 3148 3149 3150 3151 3152 3152 3154 3154 3154 3155 3155 3155 3154 3153 3152 3151 3150 3149 3148 3147 3147 3147 3148 3148 3149 3150 3150